Vorticity
8 7 6 5 6 8 7 5 6 5 5 6 6 8 8 7 6 5 6 10 2 5
6 6 6 6 8 6 5 6 5 5 5 6 8 7 7 6 6 7 8 2 6 11
5 5 6 7 6 5 6 6 5 5 6 8 7 7 4 9 7 4 4 5 14 11
6 6 6 5 6 6 6 5 5 6 8 9 6 6 10 8 4 4 6 15 10 6
5 6 6 6 6 6 5 5 7 10 8 6 10 11 4 6 0 7 14 8 5 5
7 6 6 6 5 5 5 9 10 5 8 9 5 5 2 5 7 12 8 7 6 4
6 6 6 5 4 5 9 8 6 8 5 7 6 2 4 8 13 8 8 6 3 2
6 5 4 5 7 9 8 6 6 5 6 3 3 3 11 12 7 8 6 2 4 3
5 6 6 9 8 7 7 5 7 3 3 3 3 13 12 9 7 5 2 5 4 3
8 7 9 8 5 7 5 7 6 4 3 4 11 12 8 7 2 3 0 3 2 -1
8 9 5 6 6 9 5 7 5 5 5 11 13 8 7 2 4 -6 0 0 0 5
7 8 4 6 9 8 7 6 6 6 12 12 7 6 3 3 1 -5 -5 -1 4 12
7 7 9 9 8 8 4 4 10 15 10 8 5 3 3 0 -2 5 -3 2 18 30
9 8 7 7 5 4 9 8 18 9 7 4 3 3 -0 2 1 0 -1 18 32 37
Height
5714 5714 5715 5715 5714 5713 5711 5709 5707 5703 5698 5694 5689 5685 5679 5673 5668 5661 5655 5649 5642 5635
5707 5707 5708 5707 5707 5705 5703 5701 5697 5693 5688 5684 5679 5674 5667 5662 5656 5649 5643 5636 5628 5619
5701 5701 5700 5700 5698 5697 5695 5692 5688 5684 5679 5674 5669 5663 5657 5650 5644 5636 5629 5622 5613 5604
5694 5694 5693 5692 5691 5689 5686 5683 5679 5674 5669 5663 5657 5651 5645 5639 5632 5624 5616 5607 5599 5589
5687 5687 5686 5685 5684 5681 5678 5674 5669 5664 5658 5652 5646 5640 5634 5626 5618 5610 5602 5593 5583 5574
5680 5680 5679 5677 5675 5672 5668 5664 5659 5654 5648 5641 5635 5628 5621 5613 5605 5596 5587 5578 5568 5558
5673 5672 5671 5669 5666 5663 5659 5654 5649 5643 5637 5631 5624 5617 5609 5601 5592 5583 5573 5563 5552 5540
5666 5665 5663 5660 5657 5653 5649 5644 5639 5633 5626 5620 5613 5605 5596 5588 5578 5569 5559 5547 5534 5520
5658 5657 5654 5651 5648 5644 5639 5634 5628 5622 5616 5608 5600 5591 5582 5573 5564 5554 5542 5531 5516 5500
5650 5648 5646 5642 5639 5634 5629 5623 5618 5611 5604 5595 5587 5578 5569 5560 5550 5538 5525 5510 5495 5480
5642 5640 5637 5634 5629 5624 5618 5613 5607 5599 5592 5584 5575 5566 5556 5547 5535 5522 5507 5490 5472 5457
5634 5632 5628 5624 5619 5614 5608 5602 5595 5588 5580 5572 5562 5553 5543 5532 5520 5505 5490 5471 5451 5432
5626 5623 5619 5614 5609 5604 5598 5591 5584 5575 5567 5559 5550 5539 5528 5516 5502 5488 5472 5452 5430 5410
5617 5613 5609 5605 5599 5594 5587 5580 5572 5565 5555 5546 5536 5525 5512 5498 5482 5466 5451 5430 5410 5393